KD2OZA Weather Reports


time (UTC)temp
C
wind
direction
speed
KPH
gust
KPH
rain 1hr
cm
rain 24hr
cm
rain mn
cm
humidity
%
barometer
mb
20260506070552 12 0 0.0 0.0 0.00 0.08 0.00 81 1006.9
20260506062047 11 0 0.0 0.0 0.00 0.08 0.00 90 1007.4
20260506061552 11 0 0.0 0.0 0.00 0.08 0.00 90 1007.2
20260506061047 10 0 0.0 0.0 0.00 0.08 0.00 89 1007.3
20260506060548 10 0 0.0 0.0 0.00 0.08 0.00 89 1007.3
20260506051047 11 0 0.0 0.0 0.00 0.08 0.00 88 1007.9
20260506050548 11 0 0.0 0.0 0.00 0.08 0.00 88 1008.0
20260506045049 11 0 0.0 0.0 0.00 0.08 0.00 88 1007.9
20260506044550 11 0 0.0 0.0 0.00 0.08 0.00 88 1007.9
20260506044048 11 0 0.0 0.0 0.00 0.08 0.00 87 1007.9
20260506043548 11 0 0.0 0.0 0.00 0.08 0.00 87 1007.9
20260506043050 11 0 0.0 0.0 0.00 0.08 0.00 87 1007.7
20260506042545 11 0 0.0 0.0 0.00 0.08 0.00 88 1007.9
20260506042049 11 0 0.0 0.0 0.00 0.08 0.00 89 1007.9
20260506041554 11 0 0.0 0.0 0.00 0.08 0.00 89 1008.0
20260506041045 10 0 0.0 0.0 0.00 0.08 0.00 89 1008.0
20260506040545 10 0 0.0 0.0 0.00 0.08 0.00 88 1008.1
20260506040107 10 0 0.0 0.0 0.00 0.08 0.00 88 1008.1
20260506035545 10 0 0.0 0.0 0.00 0.08 0.08 87 1008.1
20260506035048 10 0 0.0 0.0 0.00 0.08 0.08 87 1008.1
20260506034553 10 0 0.0 0.0 0.00 0.08 0.08 86 1008.3
20260506034048 11 0 0.0 0.0 0.00 0.08 0.08 87 1008.1
20260506033549 11 0 0.0 0.0 0.00 0.08 0.08 87 1008.1
20260506033056 11 0 0.0 0.0 0.00 0.08 0.08 87 1008.0
20260506032548 11 0 0.0 0.0 0.00 0.08 0.08 85 1008.2
20260506032045 11 0 0.0 0.0 0.00 0.08 0.08 85 1008.1
20260506031552 11 0 0.0 0.0 0.00 0.08 0.08 84 1008.0
20260506031046 11 0 0.0 0.0 0.00 0.08 0.08 84 1008.1
20260506030545 11 0 0.0 0.0 0.00 0.08 0.08 82 1008.0
20260506025545 12 0 0.0 0.0 0.00 0.08 0.08 82 1008.1
20260506025045 12 0 0.0 0.0 0.00 0.08 0.08 82 1008.0
20260506024557 12 0 0.0 0.0 0.00 0.08 0.08 82 1008.1
20260506024045 12 0 0.0 0.0 0.00 0.08 0.08 82 1008.1
20260506023545 12 0 0.0 0.0 0.00 0.08 0.08 82 1008.1
20260506023051 12 0 0.0 0.0 0.00 0.08 0.08 83 1008.1
20260506022545 12 0 0.0 0.0 0.00 0.08 0.08 83 1008.1
20260506022048 12 0 0.0 0.0 0.00 0.08 0.08 81 1008.0
20260506021559 12 0 0.0 0.0 0.00 0.08 0.08 82 1007.9
20260506021048 12 0 0.0 0.0 0.00 0.08 0.08 82 1008.0
20260506020549 12 0 0.0 0.0 0.00 0.08 0.08 80 1008.1
20260506020053 13 0 0.0 0.0 0.00 0.08 0.08 80 1008.1
20260506015545 13 0 0.0 0.0 0.00 0.08 0.08 79 1008.1
20260506015048 13 0 0.0 0.0 0.00 0.08 0.08 79 1008.2
20260506014603 13 0 0.0 0.0 0.00 0.08 0.08 78 1008.2
20260506014045 13 0 0.0 0.0 0.00 0.08 0.08 78 1008.3
20260506013544 13 0 0.0 0.0 0.00 0.08 0.08 78 1008.2
20260506013054 14 0 0.0 0.0 0.00 0.08 0.08 77 1008.1
20260506012545 14 0 0.0 0.0 0.00 0.08 0.08 77 1008.0
20260506012045 14 0 0.0 0.0 0.00 0.08 0.08 77 1008.0
20260506011550 14 0 0.0 0.0 0.00 0.08 0.08 77 1007.8
20260506011045 14 0 0.0 0.0 0.00 0.08 0.08 77 1007.7
20260506010548 13 0 0.0 0.0 0.00 0.08 0.08 77 1007.6
20260506010058 13 0 0.0 0.0 0.00 0.08 0.08 77 1007.5
20260506005548 13 0 0.0 0.0 0.00 0.08 0.08 77 1007.5
20260506005044 14 0 0.0 0.0 0.00 0.08 0.08 76 1007.4
20260506004557 14 0 0.0 0.0 0.00 0.08 0.08 76 1007.3
20260506004044 15 0 0.0 0.0 0.00 0.08 0.08 75 1007.2
20260506003546 15 0 0.0 0.0 0.00 0.08 0.08 74 1007.2
20260506003050 15 0 0.0 0.0 0.00 0.08 0.08 75 1007.2
20260506002544 16 0 0.0 0.0 0.00 0.08 0.08 75 1007.2
20260506002044 16 0 0.0 0.0 0.00 0.08 0.08 74 1007.2
20260506001558 16 0 0.0 0.0 0.00 0.08 0.08 73 1007.2
20260506001044 16 0 0.0 0.0 0.00 0.08 0.08 74 1007.1
20260506000546 16 0 0.0 0.0 0.00 0.08 0.08 73 1007.2
20260506000100 16 0 0.0 0.0 0.00 0.08 0.08 73 1007.2
20260505235547 17 0 0.0 0.0 0.00 0.08 0.08 74 1007.1
20260505235045 17 0 0.0 0.0 0.00 0.08 0.08 73 1007.1
20260505234556 17 0 0.0 0.0 0.00 0.08 0.08 73 1007.2
20260505234048 17 0 0.0 0.0 0.00 0.08 0.08 73 1007.0
20260505233548 17 0 0.0 0.0 0.00 0.08 0.08 73 1007.0
20260505233109 17 0 0.0 0.0 0.00 0.08 0.08 72 1006.9
20260505232544 17 0 0.0 0.0 0.00 0.08 0.08 71 1006.8
20260505232044 17 0 0.0 0.0 0.00 0.08 0.08 70 1006.9
20260505231554 18 0 0.0 0.0 0.00 0.08 0.08 72 1006.8
20260505231045 18 0 0.0 0.0 0.00 0.08 0.08 69 1006.8
20260505230545 18 0 0.0 0.0 0.00 0.08 0.08 70 1006.7
20260505230051 18 0 0.0 0.0 0.00 0.08 0.08 70 1006.8
20260505225545 18 0 0.0 0.0 0.00 0.08 0.08 68 1006.6
20260505225045 19 0 0.0 1.6 0.00 0.08 0.08 67 1006.7
20260505224550 19 0 0.0 1.6 0.00 0.08 0.08 65 1006.7
20260505224049 20 0 0.0 1.6 0.00 0.08 0.08 65 1006.6
20260505223545 20 0 0.0 6.4 0.00 0.08 0.08 63 1006.6
20260505223052 21 0 0.0 6.4 0.00 0.08 0.08 63 1006.6
20260505222548 21 355 1.6 6.4 0.00 0.08 0.08 54 1006.6
20260505222045 21 315 0.0 0.0 0.00 0.08 0.08 57 1006.5
20260505221551 21 0 0.0 0.0 0.00 0.08 0.08 61 1006.3
20260505221047 21 0 0.0 3.2 0.00 0.08 0.08 64 1006.4
20260505220544 21 0 0.0 3.2 0.00 0.08 0.08 54 1006.3
20260505220054 21 0 0.0 3.2 0.00 0.08 0.08 53 1006.3
20260505215545 21 0 0.0 1.6 0.00 0.08 0.08 53 1006.3
20260505215045 21 314 0.0 1.6 0.00 0.08 0.08 54 1006.3
20260505214549 21 0 0.0 4.8 0.00 0.08 0.08 55 1006.2
20260505214045 21 0 0.0 8.0 0.00 0.08 0.08 53 1006.2
20260505213544 21 308 1.6 8.0 0.00 0.08 0.08 53 1006.2
20260505213054 21 335 1.6 9.7 0.00 0.08 0.08 54 1006.2
20260505212548 21 314 3.2 14.5 0.00 0.08 0.08 55 1006.1
20260505212048 20 306 4.8 14.5 0.00 0.08 0.08 60 1006.3
20260505211600 20 310 0.0 1.6 0.00 0.08 0.08 68 1006.3
20260505211048 20 332 0.0 6.4 0.00 0.08 0.08 63 1006.2
20260505210549 20 0 0.0 6.4 0.00 0.08 0.08 63 1006.1
20260505210107 20 331 0.0 3.2 0.00 0.08 0.08 63 1006.1
20260505205548 20 0 0.0 3.2 0.00 0.08 0.08 62 1006.1
20260505205048 20 318 0.0 6.4 0.00 0.08 0.08 64 1006.0
20260505204559 20 318 1.6 6.4 0.00 0.08 0.08 62 1006.1
20260505204047 20 335 1.6 4.8 0.00 0.08 0.08 60 1006.2
20260505203547 21 318 0.0 19.3 0.00 0.08 0.08 62 1006.1
20260505203056 21 335 4.8 25.7 0.00 0.08 0.08 59 1006.3
20260505202548 23 18 6.4 25.7 0.00 0.08 0.08 50 1006.7
20260505202048 23 299 6.4 17.7 0.00 0.08 0.08 43 1006.4
20260505201555 23 231 1.6 14.5 0.00 0.08 0.08 44 1005.9
20260505201048 23 281 4.8 14.5 0.00 0.08 0.08 43 1005.9
20260505200549 23 264 3.2 33.8 0.00 0.08 0.08 44 1005.9
20260505200052 23 255 4.8 33.8 0.00 0.08 0.08 43 1005.8
20260505195547 23 222 6.4 33.8 0.00 0.08 0.08 43 1005.9
20260505195047 24 282 3.2 11.3 0.00 0.08 0.08 44 1005.6
20260505194557 24 0 1.6 8.0 0.00 0.08 0.08 44 1005.6
20260505194048 24 273 3.2 20.9 0.00 0.08 0.08 45 1005.8
20260505193547 24 267 3.2 20.9 0.00 0.08 0.08 43 1005.5
20260505193105 25 50 9.7 20.9 0.00 0.08 0.08 43 1005.6
20260505192547 25 297 4.8 20.9 0.00 0.08 0.08 43 1005.8
20260505192048 25 319 4.8 20.9 0.00 0.08 0.08 44 1005.8
20260505191559 25 330 3.2 25.7 0.00 0.08 0.08 44 1005.7
20260505191049 25 288 4.8 25.7 0.00 0.08 0.08 43 1005.8
20260505190548 25 319 9.7 29.0 0.00 0.08 0.08 44 1005.9
20260505190052 25 306 9.7 29.0 0.00 0.08 0.08 42 1006.1
20260505185550 25 295 8.0 19.3 0.00 0.08 0.08 43 1006.3
20260505185048 25 305 4.8 19.3 0.00 0.08 0.08 43 1006.2
20260505184601 25 15 3.2 24.1 0.00 0.08 0.08 44 1006.4
20260505184048 25 317 6.4 24.1 0.00 0.08 0.08 45 1006.5
20260505183547 25 103 8.0 32.2 0.00 0.08 0.08 44 1006.6
20260505183055 25 276 9.7 32.2 0.00 0.08 0.08 45 1006.6
20260505182548 25 318 8.0 19.3 0.00 0.08 0.08 45 1006.8
20260505182047 25 284 6.4 16.1 0.00 0.08 0.08 45 1006.8
20260505181647 25 304 6.4 19.3 0.00 0.08 0.08 44 1006.8
20260505181049 25 319 8.0 19.3 0.00 0.08 0.08 45 1006.9
20260505180548 25 173 4.8 19.3 0.00 0.08 0.08 45 1007.1
20260505180058 25 286 6.4 22.5 0.00 0.08 0.08 46 1007.0
20260505175548 25 304 4.8 22.5 0.00 0.08 0.08 43 1007.2
20260505175048 25 318 8.0 24.1 0.00 0.08 0.08 44 1007.2
20260505174555 25 304 8.0 24.1 0.00 0.08 0.08 46 1007.2
20260505174053 25 292 4.8 17.7 0.00 0.08 0.08 45 1007.2
20260505173547 25 300 3.2 17.7 0.00 0.08 0.08 43 1007.1
20260505173054 25 296 4.8 20.9 0.00 0.08 0.08 45 1007.1
20260505172547 25 290 6.4 20.9 0.00 0.08 0.08 49 1007.0
20260505172048 25 302 3.2 14.5 0.00 0.08 0.08 47 1006.9
20260505171554 24 356 3.2 14.5 0.00 0.08 0.08 48 1007.0
20260505171048 24 103 4.8 16.1 0.00 0.08 0.08 50 1006.9
20260505170549 24 290 3.2 29.0 0.00 0.08 0.08 49 1007.2
20260505170056 24 278 9.7 29.0 0.00 0.08 0.08 47 1007.3
20260505165548 24 309 3.2 12.9 0.00 0.08 0.08 47 1007.4
20260505165048 24 311 6.4 19.3 0.00 0.08 0.08 50 1007.4
20260505164551 24 271 4.8 19.3 0.00 0.08 0.08 49 1007.4
20260505164048 23 15 6.4 19.3 0.00 0.08 0.08 51 1007.5
20260505163548 24 37 6.4 17.7 0.00 0.08 0.08 50 1007.5
20260505163053 24 193 4.8 17.7 0.00 0.08 0.08 50 1007.5
20260505162548 24 282 6.4 16.1 0.00 0.08 0.08 53 1007.8
20260505162047 24 240 3.2 22.5 0.00 0.08 0.08 52 1007.9
20260505161553 23 349 4.8 22.5 0.00 0.08 0.08 50 1007.8
20260505161048 23 249 1.6 20.9 0.00 0.08 0.08 53 1007.9
20260505160549 23 271 6.4 20.9 0.00 0.08 0.08 52 1007.9
20260505153105 23 313 3.2 16.1 0.00 0.08 0.08 52 1008.5
20260505152548 23 317 4.8 14.5 0.00 0.08 0.08 50 1008.3
20260505152048 23 340 3.2 14.5 0.00 0.08 0.08 56 1008.3
20260505151558 22 299 6.4 14.5 0.00 0.08 0.08 54 1008.4
20260505151051 23 264 4.8 11.3 0.00 0.08 0.08 52 1008.3
20260505150547 22 123 4.8 11.3 0.00 0.08 0.08 57 1008.3
20260505140547 21 328 3.2 17.7 0.00 0.08 0.08 58 1008.5
20260505124557 17 330 3.2 14.5 0.00 0.08 0.08 65 1008.9
20260505124049 17 293 3.2 14.5 0.00 0.08 0.08 66 1008.9
20260505123552 17 250 3.2 12.9 0.00 0.08 0.08 66 1008.8
20260505123109 17 316 3.2 14.5 0.00 0.08 0.08 66 1008.9
20260505122547 17 302 4.8 14.5 0.00 0.08 0.08 66 1008.9
20260505122048 16 307 3.2 9.7 0.00 0.08 0.08 68 1009.1
20260505121553 16 294 1.6 8.0 0.00 0.08 0.08 69 1009.0
20260505121052 16 303 1.6 12.9 0.00 0.08 0.08 68 1008.9
20260505120548 16 300 4.8 12.9 0.00 0.08 0.08 68 1009.0
20260505120101 16 264 1.6 14.5 0.00 0.08 0.08 69 1009.0
20260505115547 15 331 4.8 14.5 0.00 0.08 0.08 70 1008.8
20260505115047 15 338 3.2 11.3 0.00 0.08 0.08 71 1008.8
20260505114554 15 326 3.2 11.3 0.00 0.08 0.08 74 1008.9
20260505114048 13 302 1.6 6.4 0.00 0.08 0.08 74 1008.8
20260505113552 13 0 0.0 3.2 0.00 0.08 0.08 77 1008.7
20260505113052 13 309 0.0 4.8 0.00 0.08 0.08 80 1008.8
20260505112547 13 310 1.6 6.4 0.00 0.08 0.08 80 1008.7
20260505112047 12 0 1.6 6.4 0.00 0.08 0.08 83 1008.9
20260505111554 12 0 1.6 8.0 0.00 0.08 0.08 87 1008.8
20260505111048 11 313 1.6 8.0 0.00 0.08 0.08 94 1008.8
20260505110548 10 330 0.0 3.2 0.00 0.08 0.08 94 1008.7
20260505102048 7 0 0.0 0.0 0.00 0.08 0.08 93 1008.1
20260505101556 7 0 0.0 1.6 0.00 0.08 0.08 93 1008.0
20260505101048 7 0 0.0 1.6 0.00 0.08 0.08 93 1007.9
20260505100548 7 0 0.0 0.0 0.00 0.08 0.08 92 1007.9
20260505100056 7 0 0.0 0.0 0.00 0.08 0.08 92 1008.0
20260505095548 7 0 0.0 0.0 0.00 0.08 0.08 92 1007.9
20260505095047 7 0 0.0 0.0 0.00 0.08 0.08 92 1007.9
20260505094550 7 0 0.0 0.0 0.00 0.08 0.08 92 1007.9
20260505094047 8 0 0.0 0.0 0.00 0.08 0.08 92 1007.9
20260505093547 8 0 0.0 0.0 0.00 0.08 0.08 92 1007.9
20260505093050 8 0 0.0 0.0 0.00 0.08 0.08 92 1007.9
20260505092548 8 0 0.0 0.0 0.00 0.08 0.08 92 1007.9
20260505092048 8 0 0.0 1.6 0.00 0.08 0.08 92 1007.9
20260505091615 8 0 0.0 1.6 0.00 0.08 0.08 91 1007.8
20260505091047 8 0 0.0 0.0 0.00 0.08 0.08 91 1007.8
20260505090548 8 0 0.0 1.6 0.00 0.08 0.08 91 1007.8
20260505090114 8 0 0.0 1.6 0.00 0.08 0.08 91 1007.7
20260505085547 8 0 0.0 0.0 0.05 0.08 0.08 90 1007.8
20260505085051 8 0 0.0 0.0 0.08 0.08 0.08 90 1007.8
20260505084613 8 0 0.0 1.6 0.08 0.08 0.08 90 1007.8
20260505084049 9 0 0.0 1.6 0.08 0.08 0.08 90 1007.9
20260505083551 9 0 0.0 0.0 0.08 0.08 0.08 90 1007.7
20260505083108 9 0 0.0 0.0 0.08 0.08 0.08 89 1007.9
20260505082547 10 0 0.0 0.0 0.08 0.08 0.08 89 1007.9
20260505082048 10 0 0.0 1.6 0.08 0.08 0.08 89 1007.9
20260505081601 10 0 0.0 1.6 0.08 0.08 0.08 89 1007.9
20260505081048 10 0 0.0 4.8 0.08 0.08 0.08 89 1007.8
20260505080551 10 0 0.0 6.4 0.08 0.08 0.08 89 1007.9
20260505080059 9 0 1.6 6.4 0.08 0.08 0.08 89 1007.7
20260505075548 9 0 0.0 1.6 0.03 0.03 0.03 88 1008.0
20260505075048 8 338 0.0 1.6 0.00 0.00 0.00 87 1008.2
20260505074552 8 0 0.0 0.0 0.00 0.00 0.00 85 1008.3
20260505074049 8 0 0.0 0.0 0.00 0.00 0.00 84 1007.8
20260505073549 8 0 0.0 0.0 0.00 0.00 0.00 84 1007.7
20260505073059 8 0 0.0 0.0 0.00 0.00 0.00 81 1007.7
20260505072547 8 0 0.0 0.0 0.00 0.00 0.00 81 1007.7
20260505072047 8 0 0.0 0.0 0.00 0.00 0.00 80 1007.7
20260505071612 8 0 0.0 0.0 0.00 0.00 0.00 80 1007.7
20260505071052 8 0 0.0 0.0 0.00 0.00 0.00 79 1007.8